VAXJO current weather conditions

sailwx.info

Wind from 180 at 8 knots

Air temperature 9.0° C
Visibility: greater than 0.6 NM
Dewpoint 8.0° C
Present weather: Mist.

Last reported at 2014-Oct-25 20:20 UTC.
Time now 2014-Oct-25 22:12 UTC

Location: N 56°51' E 014°50'.
View on Google Maps.

See reports from other nearby stations

  
Tides and Currents Weather Stations Pressure Air Temp Water Temp Dewpoint Dewpoint Depression Visibility Wind Speed Wind Dir Waves Ship Positions
date/time (UTC)wind fromknots sea level pressurealtimeterstation pressurevisibilityair tempwater tempwave heightnotes
2014-Oct-25 21:20 190 10 0.8 9.0 Mist.
2014-Oct-25 20:50 180 9 0.6 9.0 Light drizzle.
2014-Oct-25 20:20 180 8 0.6 9.0 Mist.
2014-Oct-25 19:50 180 8 1.3 9.0 Mist.
2014-Oct-25 19:20 170 8 1.2 9.0 Mist.
2014-Oct-25 18:50 180 9 1.3 9.0 Mist.
2014-Oct-25 18:20 170 9 1.8 9.0 Light drizzle.
2014-Oct-25 17:50 170 8 1.9 9.0 Mist.
2014-Oct-25 17:20 170 8 2.3 9.0 Mist.
2014-Oct-25 16:50 160 7 1.6 9.0 Drizzle.
2014-Oct-25 16:20 180 8 1.5 9.0 Light rain.
2014-Oct-25 15:50 160 8 1.6 9.0 Drizzle.
2014-Oct-25 15:20 170 9 1.8 9.0 Drizzle.
2014-Oct-25 14:50 170 7 1.6 9.0 Light drizzle.
2014-Oct-25 14:20 160 8 1.2 9.0 Mist.
2014-Oct-25 13:50 170 9 1.8 9.0 Mist.
2014-Oct-25 13:20 180 9 2.5 9.0 Mist.
2014-Oct-25 12:50 170 10 3.2 9.0 Mist.
2014-Oct-25 12:20 170 10 3.8 9.0 Mist.
2014-Oct-25 11:50 170 12 2.7 9.0 Mist.
2014-Oct-25 11:20 170 11 2.3 9.0 Light drizzle.
2014-Oct-25 10:50 170 11 3.2 9.0 Light rain.
2014-Oct-25 10:20 170 11 2.7 9.0 Mist.
2014-Oct-25 09:50 170 11 2.7 9.0 Drizzle.
2014-Oct-25 09:20 170 11 3.2 9.0 Drizzle.
2014-Oct-25 08:50 170 11 3.2 9.0 Drizzle.
2014-Oct-25 08:20 160 13 3.2 9.0 Light drizzle.
2014-Oct-25 07:50 170 11 3.2 9.0 Drizzle.
2014-Oct-25 07:20 170 13 2.7 9.0 Drizzle.
2014-Oct-25 06:50 170 12 2.6 9.0 Light rain.
2014-Oct-25 06:20 170 12 2.1 8.0 Light rain.
2014-Oct-25 05:50 170 11 2.0 8.0 Light rain.
2014-Oct-25 05:20 170 12 2.5 9.0 Drizzle.
2014-Oct-25 04:50 170 13 2.7 9.0 Light drizzle.
2014-Oct-25 04:20 160 9 3.8 9.0 Light rain.
2014-Oct-25 03:50 170 12 5.4 9.0 Light rain.
2014-Oct-25 03:20 170 11 5.4 9.0
2014-Oct-25 02:50 160 10 5.4 9.0
2014-Oct-25 02:20 170 10 5.4 9.0
2014-Oct-25 01:50 170 13 5.4 9.0
2014-Oct-25 01:20 170 13 5.4 9.0
2014-Oct-25 00:50 180 12 5.4 9.0
2014-Oct-25 00:20 170 11 5.4 9.0
2014-Oct-24 23:50 180 12 5.4 9.0
2014-Oct-24 23:20 180 11 5.4 9.0
2014-Oct-24 22:50 170 12 5.4 9.0
2014-Oct-24 22:20 180 11 5.4 9.0
2014-Oct-24 21:50 180 10 4.3 9.0 Mist.
2014-Oct-24 21:20 170 12 4.3 9.0 Mist.
2014-Oct-24 20:50 170 10 4.9 9.0 Mist.
2014-Oct-24 20:20 180 10 4.9 9.0 Mist.
2014-Oct-24 19:50 180 10 5.4 9.0 Drizzle.
2014-Oct-24 19:20 160 10 4.9 9.0 Mist.
2014-Oct-24 18:50 170 10 4.910.0 Light rain.
2014-Oct-24 18:20 160 10 5.410.0
2014-Oct-24 17:50 170 11 4.910.0 Mist.
2014-Oct-24 17:20 170 10 4.310.0 Mist.
2014-Oct-24 16:50 170 12 3.810.0 Mist.
2014-Oct-24 16:20 170 10 3.210.0 Mist.
2014-Oct-24 15:50 170 11 2.710.0 Mist.
2014-Oct-24 15:20 170 10 3.810.0 Mist.
2014-Oct-24 14:50 170 9 3.210.0 Mist.
2014-Oct-24 14:20 160 10 2.610.0 Mist.
2014-Oct-24 13:50 160 9 2.610.0 Mist.
2014-Oct-24 13:20 170 13 4.910.0 Mist.
2014-Oct-24 12:50 170 12 4.310.0 Mist.
2014-Oct-24 12:20 170 10 2.710.0 Mist.
2014-Oct-24 11:50 170 10 3.210.0 Mist.
2014-Oct-24 11:20 170 10 4.910.0 Mist.
2014-Oct-24 10:50 170 10 4.910.0 Mist.
2014-Oct-24 10:20 170 8 4.310.0 Mist.
2014-Oct-24 09:50 150 7 4.3 9.0 Mist.
2014-Oct-24 09:20 150 7 4.3 9.0 Mist.
2014-Oct-24 08:50 150 7 4.3 8.0 Mist.
2014-Oct-24 08:20 150 8 2.0 8.0 Mist.
2014-Oct-24 07:50 150 7 2.7 8.0 Mist.
2014-Oct-24 07:20 150 9 3.8 8.0 Mist.
2014-Oct-24 06:50 150 7 5.4 7.0
2014-Oct-24 06:20 150 8 5.4 7.0
2014-Oct-24 05:50 150 7 5.4 7.0
2014-Oct-24 05:20 150 7 5.4 7.0
2014-Oct-24 04:50 160 7 5.4 7.0
2014-Oct-24 04:20 160 7 5.4 7.0
2014-Oct-24 03:50 150 7 5.4 7.0
2014-Oct-24 03:20 140 7 5.4 7.0
2014-Oct-24 02:50 150 7 5.4 7.0
2014-Oct-24 02:20 140 8 5.4 6.0
2014-Oct-24 01:50 140 8 5.4 6.0
2014-Oct-24 01:20 140 8 5.4 6.0
2014-Oct-24 00:50 140 8 5.4 6.0
2014-Oct-24 00:20 150 6 5.4 6.0
2014-Oct-23 23:50 140 6 5.4 6.0
2014-Oct-23 23:20 130 6 5.4 6.0
2014-Oct-23 22:50 140 5 5.4 6.0
2014-Oct-23 22:20 140 5 5.4 6.0